User: anonymous   Login
Location: Baix
(44.7118°N, 4.7648°E)
Time: 19:49:15
(UTC+00:00)
Language:

In-Cosmos 22 - Orbit

View from above orbital plane
View from above orbital plane
View from above satellite
View from above satellite

Ground track
Ground track

The orbit data is extracted from the following two-line orbital elements,

1 12645U 81075A   20303.90343679 -.00000010 +00000-0 -10897-4 0  9990
2 12645 081.2167 083.3465 0063397 347.7355 012.2273 14.18380649028546
Epoch (UTC): 29 October 2020 21:40:56
Eccentricity: 0.0063397
inclination: 81.2167°
perigee height: 785 km
apogee height: 876 km
right ascension of ascending node: 83.3465°
argument of perigee: 347.7355°
revolutions per day: 14.18380649
mean anomaly at epoch: 12.2273°
orbit number at epoch: 2854

The dashed part of the orbit path shows where the satellite is in the earth's shadow,  

DLR